Home   Weather   Granby   Past weeks

Flag for Canada Past Weather in Granby, Quebec, Canada — Yesterday and Last 2 Weeks

Now
53 °F

Cool.


Feels Like: 53 °F
Forecast: 53 / 67 °F
Wind: 2 mph from South

Location: Frelighsburg

Current Time: Jun 28, 2017 at 4:54:41 am

Latest Report: Jun 28, 2017 at 4:00 am


Visibility: N/A

Pressure: 29.94 "Hg

Humidity: 100%

Dew Point: 53 °F

Location of GranbyLocation

Past Weather in Granby — Graph

°F

Granby Temperature Yesterday

Maximum temperature yesterday: 68 °F (at 12:00 pm)
Minimum temperature yesterday: 52 °F (at 5:00 am)
Average temperature yesterday: 58 °F

High & Low Weather Summary for the Past Weeks

 TemperatureHumidityPressure
High84 °F (Jun 18, 4:00 pm)100% (Jun 20, 1:00 am)30.11 "Hg (Jun 20, 1:00 am)
Low48 °F (Jun 15, 5:00 am)32% (Jun 15, 2:00 pm)29.45 "Hg (Jun 24, 4:00 am)
Average65 °F78%29.84 "Hg
* Reported Jun 13 3:00 am — Jun 28 3:00 am, Granby. Weather by CustomWeather, © 2017

Note: Actual official high and low records may vary slightly from our data, if they occured in-between our weather recording intervals... More about our weather records

Advertising

Granby Weather History for the Previous 24 Hours

Scroll right to see more
 ConditionsComfort  
Time TempWeatherWind HumidityBarometerVisibility
3:00 am
Wed, Jun 28
52 °FCool.2 mph100%29.93 "HgN/A
2:00 am53 °FCool.2 mph99%29.93 "HgN/A
1:00 am54 °FCool.3 mph99%29.93 "HgN/A
12:00 am54 °FCool.2 mph99%29.92 "HgN/A
11:00 pm
Tue, Jun 27
54 °FCool.3 mph98%29.92 "HgN/A
10:00 pm55 °FCool.3 mph98%29.90 "HgN/A
9:00 pm55 °FCool.2 mph92%29.89 "HgN/A
8:00 pm56 °FCool.1 mph98%29.87 "HgN/A
7:00 pm57 °FCool.3 mph93%29.87 "HgN/A
6:00 pm59 °FCool.1 mph94%29.88 "HgN/A
5:00 pm58 °FCool.5 mph90%29.88 "HgN/A
4:00 pm54 °FCool.5 mph95%29.93 "HgN/A
3:00 pm60 °FCool.5 mph82%29.89 "HgN/A
2:00 pm65 °FMild.3 mph67%29.88 "HgN/A
1:00 pm65 °FMild.2 mph63%29.89 "HgN/A
12:00 pm68 °FMild.6 mph51%29.90 "HgN/A
11:00 am64 °FMild.3 mph69%29.93 "HgN/A
10:00 am64 °FMild.5 mph69%29.95 "HgN/A
9:00 am62 °FCool.6 mph79%29.96 "HgN/A
8:00 am59 °FCool.5 mph86%29.96 "HgN/A
7:00 am56 °FCool.3 mph93%29.96 "HgN/A
6:00 am52 °FCool.3 mph100%29.95 "HgN/A
5:00 am52 °FCool.3 mph99%29.94 "HgN/A
4:00 am53 °FCool.3 mph98%29.92 "HgN/A
Weather by CustomWeather, © 2017

See weather overviewHow to use our weather pages